SCP
0 0 0 0 0 0 0 0 0 0 0 0 0 0 0 0 0 0 0 0 0 0 0 0 0 0 0 0 0 0 0 0 0 0 0 0 0 0 0 0 0 0 0
0 0 0 0 0 0 0 0 0 0 0 0 0 0 0 0 0 0 0 0 0 0 0 0 0 0 0 0 0 0 0 0 0 0 0 0 0 0 0 0 0 0 0
0 0 0 0 1 0 0 0 0 0 0 0 0 0 0 0 0 0 0 0 0 0 0 0 0 0 0 0 1 1 1 1 0 0 0 0 0 0 0 0 0 0 0
0 0 0 0 0 0 0 0 0 0 0 0 0 0 0 0 0 0 0 0 0 0 0 0 0 0 0 0 1 1 1 1 0 0 0 0 0 0 0 0 0 0 0
0 0 0 0 0 0 1 0 0 0 0 0 0 0 0 0 0 0 0 0 0 0 0 0 0 0 0 1 1 1 1 0 0 0 0 0 0 0 0 0 0 0 0
0 0 0 0 0 0 0 1 1 1 0 0 0 0 0 0 0 0 1 0 1 0 0 0 0 0 0 1 1 0 0 0 0 0 0 0 0 0 0 0 0 0 0
0 0 0 0 0 0 0 0 1 1 0 0 0 0 0 0 0 0 0 1 0 0 0 0 1 0 1 1 1 0 0 0 0 0 0 0 0 0 0 0 0 0 0
0 0 0 0 0 0 0 1 1 1 1 0 0 0 0 0 0 0 0 0 1 1 1 1 1 1 1 1 0 0 0 0 0 0 0 0 0 0 0 0 0 0 0
0 0 0 0 0 0 0 1 1 1 0 0 0 0 0 0 0 0 0 1 1 1 1 1 1 1 1 0 0 0 0 0 0 0 0 0 0 0 0 0 0 0 0
0 0 0 0 0 0 0 0 0 1 0 0 0 0 0 0 0 0 0 0 0 1 1 1 1 1 1 0 0 0 0 0 0 0 0 0 0 0 0 0 0 0 0
0 0 0 0 0 0 0 0 0 0 0 0 0 0 0 0 0 0 0 0 0 0 0 1 1 1 0 0 0 0 0 0 0 0 0 0 0 0 0 0 0 0 0
0 0 0 0 0 0 1 1 1 1 0 0 0 0 0 0 0 0 0 0 0 0 0 1 1 0 0 0 0 0 0 0 0 0 0 0 0 0 0 0 0 0 0
0 0 0 0 0 0 0 1 1 1 1 1 0 0 0 0 0 0 1 1 1 0 0 0 0 0 0 0 0 0 0 0 0 0 0 0 0 0 0 0 0 0 0
0 0 0 0 0 0 0 0 1 1 1 1 1 0 0 0 0 0 0 1 0 0 0 0 0 0 0 0 0 0 0 0 0 0 0 0 0 0 0 0 0 0 0
0 0 0 0 0 0 0 0 0 1 1 1 1 1 0 0 0 0 0 0 0 0 0 0 0 0 0 0 0 0 0 0 0 0 0 0 0 0 0 0 0 0 0
0 0 0 0 0 0 0 0 0 0 1 1 1 1 0 0 0 0 0 0 0 0 0 0 0 0 0 0 0 0 0 0 0 0 0 0 0 0 0 0 0 0 0
0 0 0 0 0 0 0 0 0 0 0 1 1 0 0 0 0 0 0 0 0 0 0 0 0 0 0 0 0 0 0 0 0 0 0 0 0 0 0 0 0 0 0
0 0 0 0 0 0 0 0 0 0 0 0 1 1 0 0 0 0 0 0 0 0 0 0 0 0 0 0 0 0 0 0 0 0 0 0 0 0 0 0 0 0 0
0 0 0 0 0 0 0 0 0 0 0 0 0 1 0 0 0 0 0 0 0 0 0 0 0 0 0 0 0 0 0 0 0 0 0 0 0 0 0 0 0 0 0
0 0 -0 -0 -0 0 0 0 0 0 0 0 0 0 0 0 0 0 0 0 0 0 0 0 0 0 0 0 0 0 0 0 0 0 0 0 0 0 0 0 0 0 0
-0 -0 -0 -0 -0 -0 -0 0 0 0 0 0 0 0 0 0 0 0 0 0 0 0 0 0 0 0 0 0 0 0 0 0 0 0 0 0 0 0 0 0 0 0 0
-0 -0 -0 -0 -0 -0 -0 -0 -0 -0 0 0 0 0 0 0 0 0 0 0 0 0 0 0 0 0 0 0 0 0 0 0 0 0 0 0 0 0 0 0 0 0 0
-0 -0 -0 -0 -0 -0 -0 -0 -0 -0 -0 0 0 0 0 0 0 0 0 0 0 0 0 0 0 0 0 0 0 0 0 0 0 0 0 0 0 0 0 0 0 0 0
-0 -0 0 0 0 -0 -0 -0 -0 -0 -0 0 -0 0 0 0 0 0 0 0 0 0 0 0 0 0 0 0 0 0 0 0 0 0 0 0 0 0 0 0 0 0 0
0 0 0 0 0 0 -0 -0 -0 -0 -0 -0 -0 -0 0 0 0 0 0 0 0 0 0 0 0 0 0 0 0 0 0 0 0 0 0 0 0 0 0 0 0 0 0
0 0 0 0 0 0 -0 -0 -0 -0 -0 -0 -0 -0 0 0 0 0 0 0 0 0 0 0 0 0 0 0 0 0 0 0 0 0 0 0 0 0 0 0 0 0 0
Wind_Speed_500mb
17 32 34 37 42 40 38 36 30 26 23 23 25 27 38 40 38 36 34 31 29 28 28 27 29 35 39 44 44 39 36 32 31 31 28 27 26 27 29 31 29 31 33
17 24 30 36 40 39 38 36 32 31 30 27 28 31 31 37 40 38 37 34 32 31 32 32 31 36 43 45 41 40 37 36 36 34 32 31 30 29 30 31 29 33 33
19 20 25 29 34 38 39 37 36 36 36 33 29 27 31 35 37 37 37 35 33 34 35 36 35 41 47 48 47 41 40 38 38 36 32 29 31 29 29 29 28 33 36
25 20 26 28 33 41 45 43 42 42 41 38 34 32 30 33 34 33 33 30 30 34 37 41 39 45 51 53 50 43 41 39 38 36 34 29 29 31 31 31 32 35 36
28 34 34 35 37 42 48 49 46 46 44 44 39 35 34 31 31 29 27 26 29 34 39 44 44 50 56 56 50 39 36 37 36 34 30 32 34 35 34 35 37 38 39
31 36 40 45 48 51 54 54 52 51 49 49 43 38 33 32 31 31 30 30 30 34 40 45 47 54 60 59 52 43 38 36 36 29 29 35 34 42 41 41 42 39 36
41 42 44 46 48 51 53 55 56 56 53 51 48 45 39 34 35 35 31 30 32 37 45 50 52 59 64 62 55 47 40 35 37 30 29 36 38 44 45 46 44 42 43
43 45 47 48 51 53 54 56 57 58 57 54 53 50 44 38 40 39 36 34 31 39 50 54 56 64 67 68 59 49 43 40 35 30 32 40 43 45 49 51 49 50 46
43 47 50 51 54 58 61 62 63 61 57 57 54 51 47 42 44 42 37 36 34 38 54 58 59 64 67 70 55 42 42 45 35 33 35 38 43 50 54 55 54 53 47
46 50 53 56 58 59 61 65 69 67 62 58 56 54 50 46 47 43 40 38 36 39 57 61 62 68 63 63 57 54 52 47 38 38 40 41 46 51 56 54 56 50 44
57 57 60 59 61 59 57 58 65 70 65 63 59 56 50 47 48 46 42 38 37 39 57 63 68 73 70 58 60 60 59 53 40 39 42 49 46 49 54 52 47 45 44
46 50 57 69 69 64 60 60 65 72 70 66 64 63 54 51 51 48 41 39 37 35 54 69 83 80 73 69 67 62 57 56 47 41 44 48 46 51 50 48 47 40 31
51 49 42 51 68 73 69 68 69 74 71 71 68 65 58 54 56 49 44 40 42 42 48 58 89 90 70 77 66 59 55 54 49 47 47 46 46 48 47 44 41 39 35
68 59 49 45 49 67 78 76 76 76 76 74 74 68 64 59 61 54 47 45 50 46 56 40 19 36 40 41 38 42 40 45 47 46 50 44 43 46 41 34 33 38 46
80 83 66 49 47 50 69 84 86 85 81 78 75 72 67 66 66 63 57 52 54 58 65 45 45 50 47 49 54 44 38 41 47 43 47 43 40 40 38 32 28 48 50
74 82 86 73 44 45 53 68 84 92 82 79 78 77 72 69 71 68 63 59 58 58 59 56 51 49 48 47 44 47 43 47 54 53 50 43 38 38 38 39 54 51 51
74 79 80 81 78 45 44 61 72 79 88 87 86 83 77 73 73 67 67 66 65 66 56 51 47 44 51 59 54 47 50 47 50 54 49 43 39 42 46 55 55 52 52
72 75 81 75 68 61 40 48 60 70 79 87 89 89 84 79 76 73 71 69 72 73 65 48 63 64 62 61 63 52 45 50 54 57 50 48 55 52 47 51 51 48 48
73 76 77 82 74 63 47 43 57 63 74 85 91 86 91 84 82 80 77 72 70 74 73 67 70 75 70 70 70 63 60 54 52 56 52 54 55 58 55 52 51 48 46
74 79 74 70 68 64 54 43 48 60 69 80 84 96 99 90 90 88 83 79 78 81 82 77 80 80 88 75 68 68 61 62 62 64 58 57 56 55 55 56 50 45 43
66 74 76 74 63 60 56 53 49 57 64 74 85 98 99 100 97 93 89 84 85 86 89 86 84 98 95 92 85 72 68 61 56 57 61 61 58 58 55 53 52 49 46
64 69 73 66 67 67 60 55 55 63 60 68 80 90 91 100 104 99 95 92 91 89 93 89 107 100 99 97 90 79 61 60 61 64 65 64 58 59 56 52 54 51 50
62 70 74 72 67 62 72 69 66 80 66 57 69 83 88 91 106 104 96 97 91 93 97 93 93 103 102 97 95 82 48 35 66 65 68 69 68 65 58 57 52 55 56
72 83 77 70 67 67 64 74 71 60 71 73 72 83 88 91 101 93 99 99 94 96 96 102 97 107 105 105 90 64 58 60 72 49 70 76 71 68 63 60 58 56 53
78 94 86 76 69 77 66 57 67 76 69 81 70 67 90 92 104 106 106 99 101 100 97 109 110 114 109 105 94 83 76 61 71 64 62 79 75 74 68 65 60 62 60
86 99 91 83 77 73 72 66 64 75 78 76 76 61 68 99 100 100 106 103 103 104 103 110 122 121 115 99 102 107 94 86 83 66 60 80 90 81 75 68 66 63 60
Wind_Direction_500mb
278 242 238 221 225 228 226 225 229 234 239 246 252 254 247 249 254 258 260 255 246 237 226 215 212 210 205 199 199 199 199 196 180 172 169 165 157 150 144 141 141 140 138
299 258 231 222 227 226 221 224 224 234 240 244 253 258 254 245 248 254 257 255 245 236 224 214 212 210 202 197 198 202 197 182 176 173 172 167 160 156 152 152 149 147 146
304 245 230 225 227 224 223 226 229 232 235 240 245 256 256 249 246 249 252 252 244 234 222 210 211 210 202 197 201 201 189 182 179 179 177 164 163 163 156 157 155 151 147
270 252 233 230 232 233 232 230 231 233 233 238 242 255 253 249 245 248 251 246 241 232 222 208 211 208 200 199 201 199 191 190 185 182 167 165 167 170 167 164 161 156 151
266 252 253 247 245 236 237 238 236 237 235 237 244 251 249 246 239 239 247 248 243 232 220 208 210 207 202 201 201 196 183 188 185 176 172 170 168 168 168 166 162 156 154
273 252 252 253 247 241 237 236 238 239 237 235 241 248 242 236 231 232 233 238 239 232 219 207 210 206 203 202 201 201 186 189 181 176 171 181 166 172 172 167 163 158 154
275 268 252 248 246 242 240 242 240 238 239 237 239 242 240 234 236 232 234 233 234 230 217 210 211 206 203 202 200 194 188 187 185 174 172 164 171 172 170 166 160 154 148
278 268 255 250 246 244 243 243 242 240 238 238 238 238 236 237 236 236 236 234 233 228 215 211 212 206 205 202 199 191 186 185 179 171 171 165 174 173 169 165 160 153 147
283 273 265 255 249 249 248 246 243 237 239 239 239 238 237 238 240 240 237 232 233 222 212 209 210 209 207 207 204 187 175 184 172 173 165 174 175 169 164 161 158 153 147
301 280 270 264 257 252 252 247 241 235 237 241 240 239 240 242 240 242 238 232 231 220 208 209 210 209 206 191 194 179 179 178 170 169 167 169 163 163 160 157 154 155 158
315 297 283 270 263 256 253 247 238 235 238 237 239 239 241 243 238 234 229 228 225 219 206 207 206 202 202 184 174 171 171 176 169 170 173 172 169 164 164 168 170 169 180
312 309 296 276 267 259 250 244 240 237 239 238 236 236 241 240 233 226 227 229 223 219 212 205 196 204 196 175 172 170 171 176 173 174 176 176 173 171 170 178 188 187 190
333 316 299 289 274 262 251 245 239 236 238 240 236 237 236 233 225 222 225 223 222 215 201 185 175 190 184 172 169 168 171 175 175 183 179 177 177 175 171 182 194 198 171
7 347 320 292 275 267 257 247 243 237 237 235 239 236 230 226 224 225 224 218 218 208 191 209 193 174 164 170 189 186 171 174 180 184 178 174 174 170 173 179 192 192 156
15 11 353 319 289 266 258 254 249 240 238 238 236 233 229 229 226 228 229 222 222 216 218 226 187 196 169 175 184 169 177 179 188 188 184 177 176 175 175 186 185 154 157
7 11 7 359 318 284 260 255 249 251 239 238 234 230 230 230 229 229 227 217 216 216 195 178 168 178 174 180 174 170 170 176 184 181 182 179 185 177 173 166 161 165 160
7 5 5 2 359 317 279 262 259 247 250 238 237 230 230 227 230 224 223 213 212 212 196 203 179 172 182 180 178 186 178 174 177 180 178 181 180 176 167 162 160 160 161
358 359 359 358 357 351 302 272 259 254 250 243 239 234 229 226 226 225 222 219 211 214 203 189 182 170 177 179 176 184 177 182 181 183 182 181 176 169 175 171 159 165 161
356 351 349 350 348 346 336 298 270 262 255 251 243 235 231 229 225 225 222 223 217 211 200 193 182 184 177 178 178 179 181 182 191 190 180 173 172 171 167 165 167 167 165
352 352 346 344 342 338 333 321 297 272 260 255 250 244 237 231 229 224 226 225 218 213 203 194 187 188 186 185 174 174 179 184 188 184 185 183 180 175 168 163 166 170 171
351 354 352 344 340 337 331 327 320 298 272 256 254 248 246 233 231 226 226 224 220 215 206 200 196 188 186 182 176 177 183 187 192 186 181 182 180 180 176 173 181 175 173
344 349 350 344 339 337 332 315 313 316 287 269 261 246 248 246 233 228 224 225 219 214 207 205 194 186 186 184 179 174 171 185 192 198 192 185 188 191 187 185 186 191 178
337 340 340 336 331 330 333 327 292 287 305 283 258 246 250 244 236 227 225 222 218 216 208 202 196 191 187 185 190 178 166 186 190 196 193 190 189 190 187 188 184 190 185
333 336 330 330 329 323 326 328 336 302 297 305 275 248 253 241 244 229 223 220 217 216 209 197 196 197 192 185 189 184 183 185 180 190 193 187 189 189 188 190 190 197 199
323 331 326 323 319 322 315 315 319 331 293 291 291 275 243 247 240 239 217 215 216 216 211 203 195 196 201 198 199 186 191 186 192 181 176 187 181 186 190 192 198 200 203
320 322 321 314 314 310 315 304 309 316 325 286 295 277 262 237 234 236 229 216 216 215 214 207 201 197 198 205 206 200 196 189 188 185 184 182 190 190 196 198 203 208 211
Wind_Speed_850mb
17 32 34 37 42 40 38 36 30 26 23 23 25 27 38 40 38 36 34 31 29 28 28 27 29 35 39 44 44 39 36 32 31 31 28 27 26 27 29 31 29 31 33
17 24 30 36 40 39 38 36 32 31 30 27 28 31 31 37 40 38 37 34 32 31 32 32 31 36 43 45 41 40 37 36 36 34 32 31 30 29 30 31 29 33 33
19 20 25 29 34 38 39 37 36 36 36 33 29 27 31 35 37 37 37 35 33 34 35 36 35 41 47 48 47 41 40 38 38 36 32 29 31 29 29 29 28 33 36
25 20 26 28 33 41 45 43 42 42 41 38 34 32 30 33 34 33 33 30 30 34 37 41 39 45 51 53 50 43 41 39 38 36 34 29 29 31 31 31 32 35 36
28 34 34 35 37 42 48 49 46 46 44 44 39 35 34 31 31 29 27 26 29 34 39 44 44 50 56 56 50 39 36 37 36 34 30 32 34 35 34 35 37 38 39
31 36 40 45 48 51 54 54 52 51 49 49 43 38 33 32 31 31 30 30 30 34 40 45 47 54 60 59 52 43 38 36 36 29 29 35 34 42 41 41 42 39 36
41 42 44 46 48 51 53 55 56 56 53 51 48 45 39 34 35 35 31 30 32 37 45 50 52 59 64 62 55 47 40 35 37 30 29 36 38 44 45 46 44 42 43
43 45 47 48 51 53 54 56 57 58 57 54 53 50 44 38 40 39 36 34 31 39 50 54 56 64 67 68 59 49 43 40 35 30 32 40 43 45 49 51 49 50 46
43 47 50 51 54 58 61 62 63 61 57 57 54 51 47 42 44 42 37 36 34 38 54 58 59 64 67 70 55 42 42 45 35 33 35 38 43 50 54 55 54 53 47
46 50 53 56 58 59 61 65 69 67 62 58 56 54 50 46 47 43 40 38 36 39 57 61 62 68 63 63 57 54 52 47 38 38 40 41 46 51 56 54 56 50 44
57 57 60 59 61 59 57 58 65 70 65 63 59 56 50 47 48 46 42 38 37 39 57 63 68 73 70 58 60 60 59 53 40 39 42 49 46 49 54 52 47 45 44
46 50 57 69 69 64 60 60 65 72 70 66 64 63 54 51 51 48 41 39 37 35 54 69 83 80 73 69 67 62 57 56 47 41 44 48 46 51 50 48 47 40 31
51 49 42 51 68 73 69 68 69 74 71 71 68 65 58 54 56 49 44 40 42 42 48 58 89 90 70 77 66 59 55 54 49 47 47 46 46 48 47 44 41 39 35
68 59 49 45 49 67 78 76 76 76 76 74 74 68 64 59 61 54 47 45 50 46 56 40 19 36 40 41 38 42 40 45 47 46 50 44 43 46 41 34 33 38 46
80 83 66 49 47 50 69 84 86 85 81 78 75 72 67 66 66 63 57 52 54 58 65 45 45 50 47 49 54 44 38 41 47 43 47 43 40 40 38 32 28 48 50
74 82 86 73 44 45 53 68 84 92 82 79 78 77 72 69 71 68 63 59 58 58 59 56 51 49 48 47 44 47 43 47 54 53 50 43 38 38 38 39 54 51 51
74 79 80 81 78 45 44 61 72 79 88 87 86 83 77 73 73 67 67 66 65 66 56 51 47 44 51 59 54 47 50 47 50 54 49 43 39 42 46 55 55 52 52
72 75 81 75 68 61 40 48 60 70 79 87 89 89 84 79 76 73 71 69 72 73 65 48 63 64 62 61 63 52 45 50 54 57 50 48 55 52 47 51 51 48 48
73 76 77 82 74 63 47 43 57 63 74 85 91 86 91 84 82 80 77 72 70 74 73 67 70 75 70 70 70 63 60 54 52 56 52 54 55 58 55 52 51 48 46
74 79 74 70 68 64 54 43 48 60 69 80 84 96 99 90 90 88 83 79 78 81 82 77 80 80 88 75 68 68 61 62 62 64 58 57 56 55 55 56 50 45 43
66 74 76 74 63 60 56 53 49 57 64 74 85 98 99 100 97 93 89 84 85 86 89 86 84 98 95 92 85 72 68 61 56 57 61 61 58 58 55 53 52 49 46
64 69 73 66 67 67 60 55 55 63 60 68 80 90 91 100 104 99 95 92 91 89 93 89 107 100 99 97 90 79 61 60 61 64 65 64 58 59 56 52 54 51 50
62 70 74 72 67 62 72 69 66 80 66 57 69 83 88 91 106 104 96 97 91 93 97 93 93 103 102 97 95 82 48 35 66 65 68 69 68 65 58 57 52 55 56
72 83 77 70 67 67 64 74 71 60 71 73 72 83 88 91 101 93 99 99 94 96 96 102 97 107 105 105 90 64 58 60 72 49 70 76 71 68 63 60 58 56 53
78 94 86 76 69 77 66 57 67 76 69 81 70 67 90 92 104 106 106 99 101 100 97 109 110 114 109 105 94 83 76 61 71 64 62 79 75 74 68 65 60 62 60
86 99 91 83 77 73 72 66 64 75 78 76 76 61 68 99 100 100 106 103 103 104 103 110 122 121 115 99 102 107 94 86 83 66 60 80 90 81 75 68 66 63 60
Wind_Direction_850mb
278 242 238 221 225 228 226 225 229 234 239 246 252 254 247 249 254 258 260 255 246 237 226 215 212 210 205 199 199 199 199 196 180 172 169 165 157 150 144 141 141 140 138
299 258 231 222 227 226 221 224 224 234 240 244 253 258 254 245 248 254 257 255 245 236 224 214 212 210 202 197 198 202 197 182 176 173 172 167 160 156 152 152 149 147 146
304 245 230 225 227 224 223 226 229 232 235 240 245 256 256 249 246 249 252 252 244 234 222 210 211 210 202 197 201 201 189 182 179 179 177 164 163 163 156 157 155 151 147
270 252 233 230 232 233 232 230 231 233 233 238 242 255 253 249 245 248 251 246 241 232 222 208 211 208 200 199 201 199 191 190 185 182 167 165 167 170 167 164 161 156 151
266 252 253 247 245 236 237 238 236 237 235 237 244 251 249 246 239 239 247 248 243 232 220 208 210 207 202 201 201 196 183 188 185 176 172 170 168 168 168 166 162 156 154
273 252 252 253 247 241 237 236 238 239 237 235 241 248 242 236 231 232 233 238 239 232 219 207 210 206 203 202 201 201 186 189 181 176 171 181 166 172 172 167 163 158 154
275 268 252 248 246 242 240 242 240 238 239 237 239 242 240 234 236 232 234 233 234 230 217 210 211 206 203 202 200 194 188 187 185 174 172 164 171 172 170 166 160 154 148
278 268 255 250 246 244 243 243 242 240 238 238 238 238 236 237 236 236 236 234 233 228 215 211 212 206 205 202 199 191 186 185 179 171 171 165 174 173 169 165 160 153 147
283 273 265 255 249 249 248 246 243 237 239 239 239 238 237 238 240 240 237 232 233 222 212 209 210 209 207 207 204 187 175 184 172 173 165 174 175 169 164 161 158 153 147
301 280 270 264 257 252 252 247 241 235 237 241 240 239 240 242 240 242 238 232 231 220 208 209 210 209 206 191 194 179 179 178 170 169 167 169 163 163 160 157 154 155 158
315 297 283 270 263 256 253 247 238 235 238 237 239 239 241 243 238 234 229 228 225 219 206 207 206 202 202 184 174 171 171 176 169 170 173 172 169 164 164 168 170 169 180
312 309 296 276 267 259 250 244 240 237 239 238 236 236 241 240 233 226 227 229 223 219 212 205 196 204 196 175 172 170 171 176 173 174 176 176 173 171 170 178 188 187 190
333 316 299 289 274 262 251 245 239 236 238 240 236 237 236 233 225 222 225 223 222 215 201 185 175 190 184 172 169 168 171 175 175 183 179 177 177 175 171 182 194 198 171
7 347 320 292 275 267 257 247 243 237 237 235 239 236 230 226 224 225 224 218 218 208 191 209 193 174 164 170 189 186 171 174 180 184 178 174 174 170 173 179 192 192 156
15 11 353 319 289 266 258 254 249 240 238 238 236 233 229 229 226 228 229 222 222 216 218 226 187 196 169 175 184 169 177 179 188 188 184 177 176 175 175 186 185 154 157
7 11 7 359 318 284 260 255 249 251 239 238 234 230 230 230 229 229 227 217 216 216 195 178 168 178 174 180 174 170 170 176 184 181 182 179 185 177 173 166 161 165 160
7 5 5 2 359 317 279 262 259 247 250 238 237 230 230 227 230 224 223 213 212 212 196 203 179 172 182 180 178 186 178 174 177 180 178 181 180 176 167 162 160 160 161
358 359 359 358 357 351 302 272 259 254 250 243 239 234 229 226 226 225 222 219 211 214 203 189 182 170 177 179 176 184 177 182 181 183 182 181 176 169 175 171 159 165 161
356 351 349 350 348 346 336 298 270 262 255 251 243 235 231 229 225 225 222 223 217 211 200 193 182 184 177 178 178 179 181 182 191 190 180 173 172 171 167 165 167 167 165
352 352 346 344 342 338 333 321 297 272 260 255 250 244 237 231 229 224 226 225 218 213 203 194 187 188 186 185 174 174 179 184 188 184 185 183 180 175 168 163 166 170 171
351 354 352 344 340 337 331 327 320 298 272 256 254 248 246 233 231 226 226 224 220 215 206 200 196 188 186 182 176 177 183 187 192 186 181 182 180 180 176 173 181 175 173
344 349 350 344 339 337 332 315 313 316 287 269 261 246 248 246 233 228 224 225 219 214 207 205 194 186 186 184 179 174 171 185 192 198 192 185 188 191 187 185 186 191 178
337 340 340 336 331 330 333 327 292 287 305 283 258 246 250 244 236 227 225 222 218 216 208 202 196 191 187 185 190 178 166 186 190 196 193 190 189 190 187 188 184 190 185
333 336 330 330 329 323 326 328 336 302 297 305 275 248 253 241 244 229 223 220 217 216 209 197 196 197 192 185 189 184 183 185 180 190 193 187 189 189 188 190 190 197 199
323 331 326 323 319 322 315 315 319 331 293 291 291 275 243 247 240 239 217 215 216 216 211 203 195 196 201 198 199 186 191 186 192 181 176 187 181 186 190 192 198 200 203
320 322 321 314 314 310 315 304 309 316 325 286 295 277 262 237 234 236 229 216 216 215 214 207 201 197 198 205 206 200 196 189 188 185 184 182 190 190 196 198 203 208 211